TimeEST,TemperatureF,Dew PointF,Humidity,Sea Level PressureIn,VisibilityMPH,Wind Direction,Wind SpeedMPH,Gust SpeedMPH,PrecipitationIn,Events,Conditions,WindDirDegrees,DateUTC
12:00 AM,71,69,90,29.91,,Calm,Calm,,,,,,2012-10-10 14:00:00
12:00 AM,71.6,68.0,88,29.89,-9999.0,Calm,Calm,-,N/A,,Clear,0,2012-10-10 14:00:00
12:30 AM,69.8,68.0,94,29.89,-9999.0,Calm,Calm,-,N/A,,Clear,0,2012-10-10 14:30:00
1:00 AM,69,68,94,29.90,,Calm,Calm,,,,,,2012-10-10 15:00:00
1:00 AM,69.8,68.0,94,29.89,-9999.0,Calm,Calm,-,N/A,,Clear,0,2012-10-10 15:00:00
1:30 AM,69.8,68.0,94,29.89,-9999.0,Calm,Calm,-,N/A,,Clear,0,2012-10-10 15:30:00
2:00 AM,69.8,68.0,94,29.86,-9999.0,Calm,Calm,-,N/A,,Clear,0,2012-10-10 16:00:00
2:30 AM,69.8,68.0,94,29.86,6.2,Calm,Calm,-,N/A,,Scattered Clouds,0,2012-10-10 16:30:00
3:00 AM,70,68,93,29.87,,Calm,Calm,,,,,,2012-10-10 17:00:00
3:00 AM,69.8,68.0,94,29.86,6.2,Calm,Calm,-,N/A,,Overcast,0,2012-10-10 17:00:00
3:30 AM,71.6,68.0,88,29.86,6.2,Calm,Calm,-,N/A,,Mostly Cloudy,0,2012-10-10 17:30:00
4:00 AM,71,68,89,29.89,,Calm,Calm,,,,,,2012-10-10 18:00:00
4:00 AM,71.6,68.0,88,29.89,6.2,Calm,Calm,-,N/A,,Mostly Cloudy,0,2012-10-10 18:00:00
5:00 AM,71.6,68.0,88,29.89,6.2,Calm,Calm,-,N/A,,Mostly Cloudy,0,2012-10-10 19:00:00
5:30 AM,71.6,68.0,88,29.89,6.2,Calm,Calm,-,N/A,,Scattered Clouds,0,2012-10-10 19:30:00
6:00 AM,70,68,91,29.91,19,North,2.3,,,,Partly Cloudy,350,2012-10-10 20:00:00
6:00 AM,69.8,68.0,94,29.89,6.2,North,2.3,-,N/A,,Partly Cloudy,350,2012-10-10 20:00:00
6:30 AM,71.6,68.0,88,29.92,6.2,WNW,1.2,-,N/A,,Partly Cloudy,290,2012-10-10 20:30:00
7:00 AM,74,70,82,29.95,,Calm,Calm,,,,,,2012-10-10 21:00:00
7:00 AM,75.2,69.8,83,29.92,6.2,Calm,Calm,-,N/A,,Partly Cloudy,0,2012-10-10 21:00:00
7:30 AM,77.0,68.0,74,29.95,6.2,WSW,4.6,-,N/A,,Scattered Clouds,240,2012-10-10 21:30:00
8:00 AM,77.0,68.0,74,29.95,6.2,NW,2.3,-,N/A,,Scattered Clouds,310,2012-10-10 22:00:00
8:30 AM,82.4,66.2,58,29.95,6.2,South,3.5,-,N/A,,Scattered Clouds,180,2012-10-10 22:30:00
9:00 AM,82.4,66.2,58,29.95,6.2,SSE,8.1,-,N/A,,Partly Cloudy,150,2012-10-10 23:00:00
9:30 AM,86.0,66.2,51,29.95,6.2,SSE,3.5,-,N/A,,Partly Cloudy,160,2012-10-10 23:30:00
10:00 AM,85,65,41,29.96,,SE,5.8,,,,,130,2012-10-11 00:00:00
10:00 AM,86.0,64.4,48,29.95,6.2,SE,5.8,-,N/A,,Partly Cloudy,130,2012-10-11 00:00:00
10:30 AM,86.0,64.4,48,29.95,6.2,NNE,5.8,-,N/A,,Partly Cloudy,30,2012-10-11 00:30:00
11:00 AM,86.0,69.8,58,29.95,6.2,NE,10.4,-,N/A,,Partly Cloudy,50,2012-10-11 01:00:00
11:30 AM,84.2,68.0,58,29.92,6.2,ENE,12.7,-,N/A,,Partly Cloudy,70,2012-10-11 01:30:00
12:00 PM,85,69,50,29.93,19,ENE,11.5,,,,Partly Cloudy,60,2012-10-11 02:00:00
12:00 PM,84.2,69.8,62,29.92,6.2,ENE,11.5,-,N/A,,Partly Cloudy,60,2012-10-11 02:00:00
12:30 PM,86.0,69.8,58,29.92,6.2,NE,10.4,-,N/A,,Partly Cloudy,50,2012-10-11 02:30:00
1:00 PM,85,70,51,29.90,,NE,10.4,,,,,50,2012-10-11 03:00:00
1:00 PM,86.0,69.8,58,29.89,6.2,NE,10.4,-,N/A,,Partly Cloudy,50,2012-10-11 03:00:00
1:30 PM,86.0,69.8,58,29.86,6.2,NE,11.5,-,N/A,,Partly Cloudy,40,2012-10-11 03:30:00
2:00 PM,84.2,69.8,62,29.86,6.2,NE,10.4,-,N/A,,Partly Cloudy,40,2012-10-11 04:00:00
2:30 PM,86.0,69.8,58,29.86,6.2,ENE,11.5,-,N/A,,Partly Cloudy,60,2012-10-11 04:30:00
3:00 PM,85,71,53,29.88,19,ENE,10.4,,,,Partly Cloudy,60,2012-10-11 05:00:00
3:00 PM,84.2,69.8,62,29.86,6.2,ENE,10.4,-,N/A,,Scattered Clouds,60,2012-10-11 05:00:00
3:30 PM,84.2,69.8,62,29.86,6.2,ENE,12.7,-,N/A,,Mostly Cloudy,60,2012-10-11 05:30:00
4:00 PM,85,69,49,29.88,,East,10.4,,,,,90,2012-10-11 06:00:00
4:00 PM,86.0,68.0,55,29.86,6.2,East,10.4,-,N/A,,Scattered Clouds,90,2012-10-11 06:00:00
4:30 PM,84.2,66.2,55,29.89,6.2,East,10.4,-,N/A,,Partly Cloudy,80,2012-10-11 06:30:00
5:00 PM,84.2,66.2,55,29.89,6.2,East,10.4,-,N/A,,Scattered Clouds,80,2012-10-11 07:00:00
5:30 PM,82.4,68.0,62,29.89,6.2,ENE,6.9,-,N/A,,Partly Cloudy,70,2012-10-11 07:30:00
6:00 PM,82,69,57,29.92,,NE,6.9,,,,,50,2012-10-11 08:00:00
6:00 PM,82.4,69.8,66,29.92,6.2,NE,6.9,-,N/A,,Scattered Clouds,50,2012-10-11 08:00:00
6:30 PM,80.6,69.8,70,29.92,6.2,ENE,8.1,-,N/A,,Mostly Cloudy,70,2012-10-11 08:30:00
7:00 PM,80,69,61,29.95,,West,5.8,,,,,280,2012-10-11 09:00:00
7:00 PM,80.6,69.8,70,29.95,6.2,West,5.8,-,N/A,,Mostly Cloudy,280,2012-10-11 09:00:00
7:30 PM,78.8,69.8,74,29.95,6.2,North,3.5,-,N/A,,Mostly Cloudy,10,2012-10-11 09:30:00
8:00 PM,78.8,69.8,74,29.95,6.2,WSW,1.2,-,N/A,,Mostly Cloudy,240,2012-10-11 10:00:00
8:30 PM,78.8,71.6,78,29.98,6.2,Calm,Calm,-,N/A,,Mostly Cloudy,0,2012-10-11 10:30:00
9:00 PM,77,71,76,29.98,,Calm,Calm,,,,,,2012-10-11 11:00:00
9:00 PM,77.0,71.6,83,29.98,6.2,Calm,Calm,-,N/A,,Mostly Cloudy,0,2012-10-11 11:00:00
9:30 PM,77.0,69.8,78,29.98,6.2,Calm,Calm,-,N/A,,Partly Cloudy,0,2012-10-11 11:30:00
10:00 PM,76,70,78,29.98,,West,4.6,,,,,280,2012-10-11 12:00:00
10:00 PM,75.2,69.8,83,29.98,6.2,West,4.6,-,N/A,,Partly Cloudy,280,2012-10-11 12:00:00
10:30 PM,75.2,69.8,83,29.98,6.2,West,5.8,-,N/A,,Partly Cloudy,280,2012-10-11 12:30:00
11:00 PM,75.2,69.8,83,29.95,6.2,West,4.6,-,N/A,,Partly Cloudy,280,2012-10-11 13:00:00
11:30 PM,75.2,69.8,83,29.95,6.2,West,3.5,-,N/A,,Partly Cloudy,270,2012-10-11 13:30:00